This is the latest recevied weather packets stored in our database for station/object MB7UCW-13. If no packets are shown the sender has not sent any weather packets the latest 10 day(s).
| Time | Temp. | Humidity | Pressure | Rain* | Wind** | Luminosity | Snow |
|---|---|---|---|---|---|---|---|
| 1777864503 | 11.11° C | 90% | 1013.7 hPa | 0 mm | - | 0 W/m² | - |
| 1777862703 | 11.11° C | 90% | 1013.6 hPa | 0 mm | - | 0 W/m² | - |
| 1777860924 | 11.11° C | 90% | 1013.4 hPa | 0 mm | - | 0 W/m² | - |
| 1777856403 | 11.11° C | 89% | 1013.2 hPa | 0 mm | - | 0 W/m² | - |
| 1777846503 | 11.67° C | 89% | 1012.7 hPa | 0 mm | - | 0 W/m² | - |
| 1777845603 | 11.67° C | 88% | 1012.6 hPa | 0 mm | - | 0 W/m² | - |
| 1777842003 | 12.22° C | 88% | 1012.1 hPa | 0 mm | - | 0 W/m² | - |
| 1777833903 | 13.33° C | 85% | 1010.4 hPa | 0 mm | - | 40 W/m² | - |
| 1777829403 | 13.89° C | 84% | 1010.1 hPa | 0 mm | - | 63 W/m² | - |
| 1777826703 | 13.89° C | 84% | 1009.9 hPa | 0 mm | - | 90 W/m² | - |
| 1777822224 | 14.44° C | 83% | 1009.7 hPa | 0 mm | - | 179 W/m² | - |
| 1777820403 | 14.44° C | 84% | 1009.7 hPa | 0 mm | - | 151 W/m² | - |
| 1777817703 | 13.89° C | 86% | 1009.6 hPa | 0 mm | - | 134 W/m² | - |
| 1777815903 | 14.44° C | 86% | 1009.7 hPa | 0 mm | - | 148 W/m² | - |
| 1777806003 | 12.78° C | 95% | 1009.3 hPa | 0 mm | - | 128 W/m² | - |
| 1777805103 | 12.78° C | 95% | 1009.3 hPa | 0 mm | - | 100 W/m² | - |
| 1777799703 | 12.22° C | 96% | 1009 hPa | 0 mm | - | 84 W/m² | - |
| 1777795224 | 11.67° C | 96% | 1008.9 hPa | 0 mm | - | 86 W/m² | - |
| 1777791603 | 11.11° C | 96% | 1008.7 hPa | 0.51 mm | - | 39 W/m² | - |
| 1777789824 | 11.11° C | 96% | 1008.4 hPa | 0.25 mm | - | 23 W/m² | - |
| 1777788003 | 11.11° C | 96% | 1008.3 hPa | 0 mm | - | 7 W/m² | - |
| 1777787124 | 11.11° C | 96% | 1008.1 hPa | 0 mm | - | 0 W/m² | - |
| 1777781724 | 11.11° C | 95% | 1008.1 hPa | 0.51 mm | - | 0 W/m² | - |
| 1777780803 | 11.67° C | 95% | 1008.2 hPa | 0.51 mm | - | 0 W/m² | - |
| 1777772703 | 11.67° C | 95% | 1009.2 hPa | 2.03 mm | - | 0 W/m² | - |
* Rain latest hour (hover to see other rain measurements)
** Current wind speed in m/s (hover to see current wind gust speed)